Flag for Colombia Weather past 2 weeks in Cali, Colombia

Now
75 °F

Passing clouds.


Feels Like: 77 °F
Forecast: 68 / 82 °F
Wind: 9 mph from North

Location: Cali / Alfonso Bonillaaragon

Current Time: May 26, 2015 at 11:49:27 PM

Latest Report: May 26, 2015 at 11:00 PM


Visibility: N/A

Pressure: 29.99 "Hg

Humidity: 74%

Dew point: 66 °F

Location of CaliLocation

Historic Weather in Cali — Graph

°F

Cali temperature yesterday

Maximum temperature yesterday: 82 °F (at 4:00 PM)
Minimum temperature yesterday: 68 °F (at 4:00 AM)
Average temperature yesterday: 74 °F

Past Weeks' High & Low Weather Summary

 TemperatureHumidityPressure
High90 °F (May 12, 3:00 PM)100% (May 19, 5:00 AM)30.34 "Hg (May 19, 5:00 AM)
Low63 °F (May 13, 9:00 PM)43% (May 26, 3:00 PM)29.81 "Hg (May 12, 4:00 PM)
Average76 °F74%29.97 "Hg
* Reported May 11 10:00 PM — May 26 10:00 PM, Cali, Weather by CustomWeather, © 2015

Note: Actual official high and low records may vary slightly from our data, if they occured in-between our weather recording intervals... More about our weather records

Advertising

Cali weather history for previous 24 hours

 ConditionsComfort  
Time TempWeatherWind HumidityBarometerVisibility
10:00 PM
Tue, May 26
73 °FPassing clouds.12 mph74%29.97 "HgN/A
9:00 PM75 °FPassing clouds.12 mph69%29.97 "HgN/A
8:00 PM75 °FPassing clouds.6 mph69%29.94 "HgN/A
7:00 PM77 °FPassing clouds.9 mph65%29.91 "HgN/A
6:00 PM81 °FScattered clouds.13 mph62%29.88 "HgN/A
5:00 PM84 °FScattered clouds.14 mph55%29.87 "HgN/A
4:00 PM88 °FScattered clouds.No wind49%29.86 "HgN/A
3:00 PM88 °FScattered clouds.5 mph43%29.87 "HgN/A
2:00 PM86 °FScattered clouds.3 mph49%29.91 "HgN/A
1:00 PM84 °FPartly sunny.5 mph51%29.95 "HgN/A
12:00 PM82 °FScattered clouds.6 mph55%29.97 "HgN/A
11:00 AM81 °FScattered clouds.5 mph62%30.01 "HgN/A
10:00 AM79 °FScattered clouds.6 mph65%30.04 "HgN/A
9:00 AM75 °FScattered clouds.No wind74%30.05 "Hg6 mi
8:00 AM72 °FScattered clouds.No wind78%30.06 "Hg5 mi
7:00 AM68 °FBroken clouds.3 mph88%30.04 "Hg6 mi
6:00 AM66 °FPartly sunny.3 mph94%30.01 "HgN/A
5:00 AMN/A3 mphN/AN/AN/A
4:00 AM68 °FPassing clouds.3 mph88%30.00 "HgN/A
3:00 AM68 °FPassing clouds.No wind88%30.00 "HgN/A
2:00 AM70 °FPassing clouds.5 mph88%30.01 "HgN/A
1:00 AM70 °FPassing clouds.2 mph88%30.03 "HgN/A
12:00 AM70 °FPassing clouds.No wind83%30.05 "HgN/A
11:00 PM
Mon, May 25
72 °FPassing clouds.No wind78%30.05 "HgN/A
Weather by CustomWeather, © 2015

See weather overviewHow to use our weather pages